Volver al catálogo

SCOUT B-1 DEB

ActivoLEO
NORAD 8868·DEBRIS·🇺🇸 United States

Lanzado May 22, 1976 desde Vandenberg Space Force Base

Loading…

Próximos Pases (próximas 24 horas)

TLE

ActualizadoSource: Space-Track

Época: Sep 14, 2026, 09:04 UTC

1 08868U 76047D   26257.37804744  .00000130  00000-0  16721-3 0  9997
2 08868 100.0790  46.8845 0050113  43.7337 345.5614 13.81727603529867

Sigue SCOUT B-1 DEB en tiempo real con AllMySat

Download on the App Store